Location: Burbank
(38.7788°N, 114.0429°W)
Time: 02:01:00
(UTC+00:00)

Explorer 11/Cluster Stage 4 - Visible Passes

Search period start: 14 May 2026 00:00
Search period end: 24 May 2026 00:00
Orbit: 463 x 1174 km, 28.8° (Epoch: 13 May)

Date Brightness Start Highest point End Pass type
(mag) Time Alt. Az. Time Alt. Az. Time Alt. Az.
15 May 8.8 04:34:33 10° SSW 04:36:27 15° S 04:36:27 15° S visible
16 May 8.4 04:09:19 10° SSW 04:14:10 19° SSE 04:14:20 19° SSE visible
16 May 9.3 05:55:31 10° SW 05:55:36 10° SW 05:55:36 10° SW visible
17 May 8.4 03:44:08 10° SSW 03:49:16 20° SSE 03:52:01 16° SE visible
17 May 8.6 05:30:22 10° SW 05:33:17 21° SW 05:33:17 21° SW visible
18 May 8.5 03:19:00 10° SSW 03:24:20 20° SSE 03:29:24 10° ESE visible
18 May 8.0 05:05:14 10° SW 05:10:44 31° S 05:10:44 31° S visible
19 May 7.8 04:40:07 10° SW 04:46:49 34° S 04:48:00 32° SSE visible
19 May 9.0 06:27:52 10° WSW 06:29:13 15° WSW 06:29:13 15° WSW visible
20 May 7.9 04:15:01 10° SW 04:21:51 35° S 04:25:03 24° SE visible
20 May 8.5 06:02:45 10° WSW 06:06:16 25° SW 06:06:16 25° SW visible
21 May 8.0 03:49:58 10° SW 03:56:53 35° S 04:01:56 16° ESE visible
21 May 8.0 05:37:38 10° WSW 05:43:08 34° SSW 05:43:08 34° SSW visible
22 May 8.0 03:24:57 10° SW 03:31:52 36° S 03:38:34 10° ESE visible
22 May 7.8 05:12:33 10° WSW 05:19:30 37° S 05:19:52 37° S visible
23 May 7.8 04:47:29 10° WSW 04:54:31 38° S 04:56:29 32° SSE visible
23 May 9.1 06:36:04 10° WSW 06:37:40 15° WSW 06:37:40 15° WSW visible
